Tracking 19628 objects as of 26-May-2019
HD Live streaming from Space Station
objects crossing your sky now
Watch Starlink satellites crossing your sky!

FLOCK 3P 11

Track FLOCK 3P 11 now!
10-day predictions
FLOCK 3P 11 is classified as:


NORAD ID: 41975
Int'l Code: 2017-008AD
Perigee: 492.1 km
Apogee: 501.8 km
Inclination: 97.4 °
Period: 94.4 minutes
Semi major axis: 6867 km
RCS: Unknown
Launch date: February 15, 2017
Source: United States (US)
Launch site: SRIHARIKOTA (SRI)
aabbcc
Your satellite tracking list
Your tracking list is empty




NASA's NSSDC Master Catalog

Two Line Element Set (TLE):
1 41975U 17008AD  19146.42146202  .00001242  00000-0  52120-4 0  9997
2 41975  97.4079 213.6430 0007114 213.0277 147.0517 15.25326561126109
Source of the keplerian elements: AFSPC